• In Uzbekistan
  • List of Countries
  • For 7 days
  • Water Temperature
  • Satellite Maps
  • Weather Map
  • Weather Widgets
  • user-avatar
    Login

    Hourly Weather Vreed en Hoop

    Today, 19 January, Saturday

    Time Temperature Precipitation Wind Pressure Humidity
    00:00 +26°C° 0.3 mm 3 mps 760 mmHg 91%
    01:00 +26°C° 0.3 mm 3 mps 760 mmHg 92%
    02:00 +26°C° 0.3 mm 3 mps 760 mmHg 93%
    03:00 +26°C° 0.1 mm 3 mps 760 mmHg 93%
    04:00 +26°C° 0.1 mm 3 mps 759 mmHg 92%
    05:00 +26°C° 0.1 mm 3 mps 759 mmHg 92%
    06:00 +26°C° 0 mm 3 mps 760 mmHg 90%
    07:00 +27°C° 0 mm 3 mps 760 mmHg 87%
    08:00 +28°C° 0 mm 3 mps 761 mmHg 84%
    09:00 +29°C° 0.1 mm 3 mps 761 mmHg 77%
    10:00 +30°C° 0.1 mm 4 mps 761 mmHg 70%
    11:00 +33°C° 0.1 mm 4 mps 761 mmHg 62%
    12:00 +33°C° 0 mm 4 mps 760 mmHg 61%
    13:00 +33°C° 0 mm 4 mps 759 mmHg 60%
    14:00 +33°C° 0 mm 4 mps 759 mmHg 59%
    15:00 +32°C° 0 mm 4 mps 758 mmHg 63%
    16:00 +30°C° 0 mm 3 mps 758 mmHg 67%
    17:00 +29°C° 0 mm 3 mps 757 mmHg 71%
    18:00 +28°C° 0 mm 3 mps 758 mmHg 76%
    19:00 +28°C° 0 mm 3 mps 758 mmHg 81%
    20:00 +27°C° 0 mm 4 mps 759 mmHg 86%
    21:00 +27°C° 0.1 mm 4 mps 759 mmHg 85%
    22:00 +27°C° 0.1 mm 4 mps 760 mmHg 85%
    23:00 +27°C° 0.1 mm 4 mps 760 mmHg 85%

    Tomorrow, 20 January, Sunday

    Time Temperature Precipitation Wind Pressure Humidity
    00:00 +26°C° 0.1 mm 3 mps 760 mmHg 85%
    01:00 +26°C° 0.1 mm 3 mps 759 mmHg 86%
    02:00 +26°C° 0.1 mm 3 mps 759 mmHg 87%
    03:00 +26°C° 0.2 mm 3 mps 759 mmHg 87%
    04:00 +26°C° 0.2 mm 3 mps 759 mmHg 88%
    05:00 +26°C° 0.2 mm 3 mps 759 mmHg 88%
    06:00 +26°C° 0.2 mm 3 mps 759 mmHg 88%
    07:00 +27°C° 0.2 mm 3 mps 760 mmHg 88%
    08:00 +27°C° 0.2 mm 3 mps 761 mmHg 88%
    09:00 +28°C° 0.3 mm 3 mps 761 mmHg 84%
    10:00 +29°C° 0.3 mm 4 mps 761 mmHg 80%
    11:00 +30°C° 0.3 mm 4 mps 761 mmHg 76%
    12:00 +30°C° 0.3 mm 4 mps 760 mmHg 73%
    13:00 +32°C° 0.3 mm 4 mps 759 mmHg 70%
    14:00 +32°C° 0.3 mm 5 mps 759 mmHg 67%
    15:00 +30°C° 0 mm 4 mps 758 mmHg 68%
    16:00 +30°C° 0 mm 4 mps 758 mmHg 70%
    17:00 +29°C° 0 mm 4 mps 758 mmHg 72%
    18:00 +28°C° 0 mm 4 mps 758 mmHg 76%
    19:00 +28°C° 0 mm 4 mps 759 mmHg 80%
    20:00 +27°C° 0 mm 3 mps 759 mmHg 84%
    21:00 +27°C° 0 mm 3 mps 760 mmHg 85%
    22:00 +27°C° 0 mm 3 mps 760 mmHg 86%
    23:00 +26°C° 0 mm 3 mps 760 mmHg 87%

    Day after tomorrow, 21 January, Monday

    Time Temperature Precipitation Wind Pressure Humidity
    00:00 +26°C° 0 mm 3 mps 760 mmHg 87%
    01:00 +26°C° 0 mm 3 mps 759 mmHg 88%
    02:00 +26°C° 0 mm 3 mps 759 mmHg 88%
    03:00 +26°C° 0 mm 3 mps 759 mmHg 88%
    04:00 +26°C° 0 mm 3 mps 759 mmHg 88%
    05:00 +26°C° 0 mm 3 mps 759 mmHg 88%
    06:00 +27°C° 0 mm 3 mps 760 mmHg 83%
    07:00 +28°C° 0 mm 3 mps 760 mmHg 79%
    08:00 +29°C° 0 mm 3 mps 761 mmHg 74%
    09:00 +30°C° 0.1 mm 3 mps 761 mmHg 69%
    10:00 +32°C° 0.1 mm 4 mps 761 mmHg 64%
    11:00 +33°C° 0.1 mm 4 mps 761 mmHg 59%
    12:00 +33°C° 0 mm 4 mps 761 mmHg 59%
    13:00 +33°C° 0 mm 4 mps 760 mmHg 58%
    14:00 +33°C° 0 mm 4 mps 759 mmHg 58%
    15:00 +32°C° 0 mm 4 mps 759 mmHg 63%
    16:00 +30°C° 0 mm 4 mps 759 mmHg 68%
    17:00 +29°C° 0 mm 4 mps 758 mmHg 73%
    18:00 +28°C° 0 mm 4 mps 759 mmHg 77%
    19:00 +28°C° 0 mm 4 mps 760 mmHg 81%
    20:00 +27°C° 0 mm 3 mps 760 mmHg 85%
    21:00 +27°C° 0 mm 3 mps 760 mmHg 86%
    22:00 +26°C° 0 mm 3 mps 761 mmHg 87%
    23:00 +26°C° 0 mm 3 mps 761 mmHg 88%

    22 January, Tuesday

    Time Temperature Precipitation Wind Pressure Humidity
    00:00 +26°C° 0.2 mm 3 mps 761 mmHg 90%
    01:00 +26°C° 0.2 mm 3 mps 760 mmHg 91%
    02:00 +26°C° 0.2 mm 3 mps 760 mmHg 92%
    03:00 +26°C° 0.3 mm 3 mps 760 mmHg 93%
    04:00 +26°C° 0.3 mm 3 mps 760 mmHg 93%
    05:00 +26°C° 0.3 mm 3 mps 760 mmHg 94%
    06:00 +26°C° 0.3 mm 3 mps 760 mmHg 92%
    07:00 +27°C° 0.3 mm 3 mps 761 mmHg 91%
    08:00 +27°C° 0.3 mm 4 mps 762 mmHg 89%
    09:00 +28°C° 0.4 mm 4 mps 762 mmHg 84%
    10:00 +29°C° 0.4 mm 4 mps 762 mmHg 79%
    11:00 +30°C° 0.4 mm 4 mps 762 mmHg 73%
    12:00 +32°C° 0.2 mm 4 mps 761 mmHg 70%
    13:00 +32°C° 0.2 mm 4 mps 760 mmHg 66%
    14:00 +32°C° 0.2 mm 4 mps 759 mmHg 62%
    15:00 +32°C° 0 mm 4 mps 759 mmHg 65%
    16:00 +30°C° 0 mm 4 mps 759 mmHg 68%
    17:00 +29°C° 0 mm 4 mps 759 mmHg 71%
    18:00 +28°C° 0 mm 4 mps 759 mmHg 76%
    19:00 +27°C° 0 mm 3 mps 760 mmHg 81%
    20:00 +26°C° 0 mm 3 mps 760 mmHg 85%
    21:00 +26°C° 0 mm 3 mps 760 mmHg 87%
    22:00 +26°C° 0 mm 3 mps 761 mmHg 88%
    23:00 +26°C° 0 mm 3 mps 761 mmHg 89%

    23 January, Wednesday

    Time Temperature Precipitation Wind Pressure Humidity
    00:00 +26°C° 0.1 mm 2 mps 760 mmHg 90%
    01:00 +25°C° 0.1 mm 2 mps 760 mmHg 92%
    02:00 +25°C° 0.1 mm 2 mps 760 mmHg 93%
    03:00 +25°C° 0.3 mm 2 mps 760 mmHg 93%
    04:00 +25°C° 0.3 mm 2 mps 760 mmHg 94%
    05:00 +25°C° 0.3 mm 2 mps 760 mmHg 94%
    06:00 +26°C° 0.3 mm 2 mps 760 mmHg 92%
    07:00 +26°C° 0.3 mm 2 mps 761 mmHg 90%
    08:00 +27°C° 0.3 mm 2 mps 761 mmHg 88%
    09:00 +28°C° 0.4 mm 2 mps 761 mmHg 85%
    10:00 +28°C° 0.4 mm 3 mps 761 mmHg 82%
    11:00 +29°C° 0.4 mm 3 mps 761 mmHg 79%
    12:00 +29°C° 0.2 mm 4 mps 761 mmHg 75%
    13:00 +30°C° 0.2 mm 4 mps 760 mmHg 72%
    14:00 +30°C° 0.2 mm 4 mps 759 mmHg 68%
    15:00 +30°C° 0 mm 4 mps 759 mmHg 70%
    16:00 +29°C° 0 mm 4 mps 759 mmHg 72%
    17:00 +29°C° 0 mm 4 mps 759 mmHg 74%
    18:00 +28°C° 0 mm 4 mps 759 mmHg 77%
    19:00 +27°C° 0 mm 4 mps 760 mmHg 81%
    20:00 +26°C° 0 mm 4 mps 760 mmHg 84%
    21:00 +26°C° 0.2 mm 4 mps 760 mmHg 85%
    22:00 +26°C° 0.2 mm 4 mps 760 mmHg 87%
    23:00 +26°C° 0.2 mm 4 mps 761 mmHg 89%

    24 January, Thursday

    Time Temperature Precipitation Wind Pressure Humidity
    00:00 +26°C° 0.3 mm 4 mps 760 mmHg 89%
    01:00 +25°C° 0.3 mm 4 mps 760 mmHg 90%
    02:00 +25°C° 0.3 mm 4 mps 759 mmHg 91%
    03:00 +25°C° 0.2 mm 4 mps 759 mmHg 91%
    04:00 +25°C° 0.2 mm 4 mps 759 mmHg 91%
    05:00 +25°C° 0.2 mm 4 mps 759 mmHg 90%
    06:00 +26°C° 0 mm 4 mps 760 mmHg 87%
    07:00 +27°C° 0 mm 4 mps 760 mmHg 84%
    08:00 +28°C° 0 mm 4 mps 761 mmHg 81%
    09:00 +28°C° 0.2 mm 4 mps 761 mmHg 76%
    10:00 +29°C° 0.2 mm 4 mps 761 mmHg 71%
    11:00 +30°C° 0.2 mm 5 mps 761 mmHg 66%
    12:00 +30°C° 0.3 mm 5 mps 760 mmHg 67%
    13:00 +30°C° 0.3 mm 5 mps 760 mmHg 67%
    14:00 +30°C° 0.3 mm 5 mps 759 mmHg 68%
    15:00 +29°C° 0.1 mm 5 mps 759 mmHg 69%
    16:00 +29°C° 0.1 mm 4 mps 759 mmHg 70%
    17:00 +28°C° 0.1 mm 4 mps 758 mmHg 72%
    18:00 +28°C° 0 mm 4 mps 759 mmHg 75%
    19:00 +27°C° 0 mm 4 mps 759 mmHg 78%
    20:00 +26°C° 0 mm 3 mps 760 mmHg 82%
    21:00 +26°C° 0 mm 3 mps 760 mmHg 82%
    22:00 +26°C° 0 mm 3 mps 760 mmHg 83%
    23:00 +26°C° 0 mm 3 mps 760 mmHg 83%
    Show more